VIR8Y KLAX-EGLL

Flight info

Callsign VIR8Y
Flight time N/A
Altitude 35000
Route ORCKA5 LAS DCT BCE DCT MBW DCT DPR DCT GABOV DCT KEMSA/N0493F370 DCT JELCO/M085F370 DCT LIBOR DCT 63N050W 63N040W/M084F390 62N030W 60N020W DCT GOMUP/N0482F390 DCT GINGA DCT KELLY L10 WAL UY53 NUGRA NUGRA2H
Aircraft A35K/H-SDE2E3GHIJ3J4J5LM1ORWXY/LB1D1

Departure

Time 2026-05-05 01:42
Airport Los Angeles International Airport (KLAX)

Arrival

Time N/A
Airport London Heathrow Airport (EGLL)
Time Latitude Longitude Altitude Speed Heading
2026-05-05 01:11 33.94477 -118.40982 99 ft 0 kts 261°
2026-05-05 01:22 33.94478 -118.40974 101 ft 4 kts 261°
2026-05-05 01:23 33.94482 -118.40942 99 ft 4 kts 263°
2026-05-05 01:23 33.94485 -118.40910 99 ft 4 kts 265°
2026-05-05 01:23 33.94488 -118.40879 99 ft 0 kts 262°
2026-05-05 01:23 33.94490 -118.40888 99 ft 2 kts 291°
2026-05-05 01:24 33.94502 -118.40898 97 ft 2 kts 347°
2026-05-05 01:24 33.94509 -118.40899 99 ft 0 kts 354°
2026-05-05 01:31 33.94510 -118.40899 99 ft 1 kts 354°
2026-05-05 01:31 33.94521 -118.40900 100 ft 3 kts 355°
2026-05-05 01:32 33.94547 -118.40901 99 ft 5 kts
2026-05-05 01:32 33.94587 -118.40899 100 ft 7 kts
2026-05-05 01:32 33.94639 -118.40902 101 ft 8 kts 354°
2026-05-05 01:32 33.94702 -118.40909 101 ft 10 kts 359°
2026-05-05 01:33 33.94772 -118.40892 100 ft 11 kts 14°
2026-05-05 01:33 33.94831 -118.40837 103 ft 11 kts 63°
2026-05-05 01:33 33.94848 -118.40740 101 ft 13 kts 82°
2026-05-05 01:33 33.94861 -118.40626 101 ft 15 kts 83°
2026-05-05 01:34 33.94874 -118.40496 102 ft 17 kts 83°
2026-05-05 01:34 33.94889 -118.40352 101 ft 18 kts 83°
2026-05-05 01:34 33.94905 -118.40194 103 ft 20 kts 83°
2026-05-05 01:34 33.94917 -118.40074 102 ft 13 kts 83°
2026-05-05 01:35 33.94920 -118.40040 102 ft 0 kts 83°
2026-05-05 01:37 33.94921 -118.40032 100 ft 2 kts 83°
2026-05-05 01:37 33.94924 -118.40004 99 ft 4 kts 83°
2026-05-05 01:37 33.94933 -118.39960 100 ft 6 kts 67°
2026-05-05 01:37 33.94967 -118.39925 101 ft 7 kts 21°
2026-05-05 01:38 33.95020 -118.39925 101 ft 8 kts 336°
2026-05-05 01:38 33.95037 -118.39978 102 ft 7 kts 273°
2026-05-05 01:38 33.95036 -118.40010 100 ft 0 kts 263°
2026-05-05 01:41 33.95030 -118.40069 102 ft 24 kts 263°
2026-05-05 01:41 33.94980 -118.40546 103 ft 93 kts 262°
2026-05-05 01:41 33.94873 -118.41590 104 ft 156 kts 263°
2026-05-05 01:41 33.94727 -118.43003 635 ft 171 kts 263°
2026-05-05 01:42 33.94588 -118.44412 1551 ft 170 kts 263°
2026-05-05 01:42 33.94440 -118.45911 1928 ft 192 kts 262°
2026-05-05 01:42 33.94280 -118.47578 2276 ft 210 kts 262°
2026-05-05 01:42 33.94106 -118.49406 2620 ft 229 kts 262°
2026-05-05 01:43 33.93913 -118.51381 3046 ft 243 kts 262°
2026-05-05 01:43 33.93707 -118.53413 3750 ft 245 kts 262°
2026-05-05 01:43 33.93489 -118.55457 4402 ft 250 kts 262°
2026-05-05 01:43 33.93238 -118.57550 5052 ft 253 kts 261°
2026-05-05 01:44 33.92955 -118.59657 5767 ft 256 kts 261°
2026-05-05 01:44 33.92660 -118.61775 6542 ft 255 kts 261°
2026-05-05 01:44 33.92365 -118.63851 7311 ft 256 kts 260°
2026-05-05 01:44 33.92068 -118.66005 7904 ft 263 kts 261°
2026-05-05 01:45 33.91773 -118.68200 8646 ft 265 kts 256°
2026-05-05 01:45 33.90986 -118.70177 9378 ft 265 kts 227°
2026-05-05 01:45 33.89610 -118.71638 10183 ft 264 kts 214°
2026-05-05 01:45 33.87966 -118.72752 10594 ft 281 kts 205°
2026-05-05 01:46 33.86032 -118.73436 10897 ft 301 kts 188°
2026-05-05 01:46 33.83884 -118.73172 11241 ft 323 kts 164°
2026-05-05 01:46 33.81907 -118.71748 11569 ft 346 kts 139°
2026-05-05 01:46 33.80496 -118.69298 11901 ft 368 kts 115°
2026-05-05 01:47 33.79934 -118.66269 12238 ft 387 kts 94°
2026-05-05 01:47 33.80289 -118.63009 12564 ft 402 kts 73°
2026-05-05 01:47 33.81538 -118.59956 12921 ft 412 kts 54°
2026-05-05 01:47 33.83322 -118.57215 13438 ft 418 kts 49°
2026-05-05 01:48 33.85223 -118.54583 13958 ft 423 kts 47°
2026-05-05 01:48 33.87161 -118.51898 14444 ft 427 kts 49°
2026-05-05 01:48 33.89097 -118.49137 14908 ft 432 kts 49°
2026-05-05 01:48 33.91073 -118.46390 15432 ft 435 kts 48°
2026-05-05 01:49 33.93047 -118.43592 15934 ft 440 kts 52°
2026-05-05 01:49 33.94842 -118.40584 16465 ft 444 kts 56°
2026-05-05 01:49 33.96598 -118.37495 16983 ft 448 kts 56°
2026-05-05 01:49 33.98361 -118.34376 17464 ft 453 kts 56°
2026-05-05 01:50 34.00122 -118.31261 17942 ft 458 kts 56°
2026-05-05 01:50 34.01929 -118.28066 18423 ft 462 kts 56°
2026-05-05 01:50 34.03752 -118.24848 18848 ft 466 kts 56°
2026-05-05 01:50 34.05594 -118.21597 19308 ft 470 kts 56°
2026-05-05 01:51 34.07447 -118.18324 19706 ft 475 kts 56°
2026-05-05 01:51 34.09318 -118.15017 20148 ft 479 kts 56°
2026-05-05 01:51 34.11206 -118.11676 20598 ft 484 kts 56°
2026-05-05 01:51 34.13091 -118.08346 21043 ft 488 kts 56°
2026-05-05 01:52 34.15013 -118.04946 21467 ft 493 kts 56°
2026-05-05 01:52 34.16953 -118.01496 21867 ft 499 kts 56°
2026-05-05 01:52 34.18913 -117.98008 22328 ft 503 kts 56°
2026-05-05 01:52 34.20889 -117.94490 22799 ft 508 kts 56°
2026-05-05 01:53 34.22886 -117.90934 23257 ft 513 kts 56°
2026-05-05 01:53 34.24900 -117.87340 23723 ft 517 kts 56°
2026-05-05 01:53 34.26931 -117.83716 24072 ft 523 kts 56°
2026-05-05 01:53 34.28950 -117.80110 24422 ft 527 kts 56°
2026-05-05 01:54 34.31017 -117.76416 24751 ft 532 kts 56°
2026-05-05 01:54 34.33105 -117.72683 25140 ft 536 kts 56°
2026-05-05 01:54 34.35197 -117.68936 25469 ft 540 kts 56°
2026-05-05 01:54 34.37372 -117.65186 25762 ft 545 kts 54°
2026-05-05 01:55 34.39616 -117.61471 26150 ft 548 kts 54°
2026-05-05 01:55 34.41881 -117.57718 26475 ft 553 kts 54°
2026-05-05 01:55 34.44121 -117.53986 26767 ft 557 kts 54°
2026-05-05 01:55 34.46400 -117.50174 27224 ft 559 kts 54°
2026-05-05 01:56 34.48686 -117.46341 27522 ft 563 kts 54°
2026-05-05 01:56 34.50992 -117.42465 27832 ft 567 kts 55°
2026-05-05 01:56 34.53307 -117.38568 28145 ft 571 kts 55°
2026-05-05 01:56 34.55636 -117.34642 28445 ft 575 kts 55°
2026-05-05 01:57 34.57978 -117.30689 28734 ft 578 kts 55°
2026-05-05 01:57 34.60336 -117.26705 29024 ft 582 kts 55°
2026-05-05 01:57 34.62676 -117.22747 29371 ft 583 kts 55°
2026-05-05 01:57 34.65039 -117.18744 29719 ft 584 kts 55°
2026-05-05 01:58 34.67410 -117.14725 30023 ft 586 kts 56°
2026-05-05 01:58 34.69792 -117.10681 30298 ft 587 kts 56°
2026-05-05 01:58 34.72168 -117.06644 30684 ft 586 kts 56°
2026-05-05 01:58 34.74535 -117.02617 31107 ft 585 kts 56°
2026-05-05 01:59 34.76908 -116.98575 31428 ft 584 kts 56°
2026-05-05 01:59 34.79239 -116.94602 31780 ft 584 kts 56°
2026-05-05 01:59 34.81598 -116.90574 32155 ft 583 kts 56°
2026-05-05 01:59 34.83953 -116.86550 32471 ft 582 kts 56°
2026-05-05 02:00 34.86304 -116.82527 32799 ft 582 kts 56°
2026-05-05 02:00 34.88651 -116.78507 33070 ft 582 kts 56°
2026-05-05 02:00 34.91004 -116.74495 33361 ft 582 kts 54°
2026-05-05 02:00 34.93593 -116.70686 33641 ft 582 kts 48°
2026-05-05 02:01 34.96327 -116.67044 33918 ft 581 kts 47°
2026-05-05 02:01 34.99075 -116.63437 34161 ft 581 kts 47°
2026-05-05 02:01 35.01797 -116.59865 34411 ft 579 kts 47°
2026-05-05 02:01 35.04537 -116.56261 34649 ft 578 kts 47°
2026-05-05 02:02 35.07271 -116.52657 34831 ft 579 kts 47°
2026-05-05 02:02 35.10016 -116.49031 34856 ft 583 kts 47°
2026-05-05 02:02 35.15523 -116.41744 34853 ft 585 kts 47°
2026-05-05 02:03 35.21040 -116.34425 34870 ft 583 kts 47°
2026-05-05 02:03 35.26533 -116.27122 34861 ft 582 kts 47°
2026-05-05 02:04 35.32028 -116.19799 34850 ft 586 kts 47°
2026-05-05 02:04 35.37559 -116.12417 34863 ft 589 kts 47°
2026-05-05 02:05 35.43057 -116.05060 34853 ft 588 kts 47°
2026-05-05 02:05 35.48587 -115.97643 34864 ft 588 kts 47°
2026-05-05 02:06 35.54119 -115.90208 34871 ft 591 kts 47°
2026-05-05 02:06 35.59685 -115.82711 34873 ft 594 kts 47°
2026-05-05 02:07 35.65220 -115.75233 34878 ft 594 kts 48°
2026-05-05 02:07 35.70743 -115.67628 34880 ft 594 kts 48°
2026-05-05 02:08 35.76261 -115.60012 34879 ft 596 kts 49°
2026-05-05 02:08 35.81824 -115.52329 34883 ft 603 kts 49°
2026-05-05 02:09 35.87358 -115.44671 34879 ft 598 kts 48°
2026-05-05 02:09 35.92887 -115.37005 34872 ft 596 kts 49°
2026-05-05 02:10 35.98398 -115.29346 34873 ft 598 kts 49°
2026-05-05 02:10 36.03946 -115.21617 34835 ft 602 kts 49°
2026-05-05 02:11 36.09322 -115.13746 34836 ft 602 kts 53°
2026-05-05 02:11 36.14302 -115.05417 34773 ft 601 kts 56°
2026-05-05 02:12 36.21593 -114.92776 34774 ft 602 kts 56°
2026-05-05 02:13 36.26464 -114.84373 34770 ft 602 kts 56°
2026-05-05 02:13 36.31361 -114.75952 34746 ft 602 kts 56°
2026-05-05 02:14 36.36262 -114.67514 34732 ft 602 kts 56°
2026-05-05 02:14 36.41146 -114.59080 34717 ft 601 kts 56°
2026-05-05 02:15 36.46024 -114.50627 34715 ft 601 kts 56°
2026-05-05 02:15 36.50858 -114.42229 34718 ft 601 kts 56°
2026-05-05 02:16 36.55718 -114.33765 34728 ft 602 kts 56°
2026-05-05 02:16 36.60588 -114.25266 34715 ft 603 kts 56°
2026-05-05 02:17 36.65458 -114.16743 34734 ft 603 kts 56°
2026-05-05 02:17 36.70322 -114.08213 34733 ft 603 kts 56°
2026-05-05 02:18 36.75184 -113.99662 34573 ft 613 kts 56°
2026-05-05 02:18 36.77648 -113.95319 34799 ft 612 kts 56°
2026-05-05 02:18 36.80102 -113.90992 35133 ft 609 kts 56°
2026-05-05 02:18 36.82548 -113.86671 35398 ft 608 kts 56°
2026-05-05 02:19 36.84985 -113.82362 35653 ft 607 kts 56°
2026-05-05 02:19 36.87421 -113.78048 35929 ft 606 kts 56°
2026-05-05 02:19 36.89853 -113.73735 36170 ft 605 kts 56°
2026-05-05 02:19 36.92280 -113.69425 36355 ft 605 kts 56°
2026-05-05 02:20 36.94704 -113.65116 36455 ft 607 kts 56°
2026-05-05 02:20 36.97106 -113.60839 36617 ft 607 kts 56°
2026-05-05 02:20 36.99529 -113.56519 36794 ft 607 kts 56°
2026-05-05 02:21 37.04375 -113.47867 36848 ft 606 kts 56°
2026-05-05 02:21 37.09204 -113.39222 36785 ft 606 kts 56°
2026-05-05 02:22 37.14059 -113.30505 36831 ft 612 kts 56°
2026-05-05 02:22 37.18928 -113.21742 36839 ft 612 kts 56°
2026-05-05 02:23 37.23796 -113.12960 36848 ft 611 kts 56°
2026-05-05 02:23 37.28607 -113.04254 36833 ft 610 kts 56°
2026-05-05 02:24 37.33442 -112.95486 36821 ft 609 kts 56°
2026-05-05 02:24 37.38268 -112.86701 36836 ft 610 kts 56°
2026-05-05 02:25 37.43084 -112.77923 36833 ft 609 kts 56°
2026-05-05 02:25 37.47881 -112.69156 36845 ft 612 kts 56°
2026-05-05 02:26 37.52721 -112.60288 36844 ft 613 kts 56°
2026-05-05 02:26 37.56741 -112.52907 36837 ft 613 kts 56°
2026-05-05 02:27 37.61553 -112.44039 36894 ft 612 kts 56°
2026-05-05 02:27 37.66359 -112.35160 36964 ft 612 kts 56°
2026-05-05 02:28 37.71629 -112.26740 36992 ft 611 kts 47°
2026-05-05 02:28 37.77315 -112.18761 37006 ft 611 kts 45°
2026-05-05 02:29 37.83050 -112.10894 36971 ft 611 kts 45°
2026-05-05 02:29 37.88824 -112.02960 36928 ft 612 kts 45°
2026-05-05 02:30 37.94586 -111.94985 36869 ft 611 kts 45°
2026-05-05 02:30 38.00311 -111.87019 36831 ft 609 kts 45°
2026-05-05 02:31 38.05977 -111.79119 36806 ft 608 kts 45°
2026-05-05 02:31 38.11678 -111.71155 36816 ft 610 kts 45°
2026-05-05 02:32 38.17390 -111.63156 36822 ft 611 kts 45°
2026-05-05 02:32 38.23103 -111.55134 36825 ft 611 kts 45°
2026-05-05 02:33 38.28749 -111.47182 36804 ft 606 kts 45°
2026-05-05 02:33 38.34406 -111.39204 36779 ft 606 kts 45°
2026-05-05 02:34 38.40056 -111.31214 36776 ft 606 kts 45°
2026-05-05 02:34 38.45699 -111.23211 36758 ft 606 kts 45°
2026-05-05 02:35 38.51308 -111.15234 36755 ft 606 kts 45°
2026-05-05 02:35 38.56925 -111.07223 36752 ft 603 kts 45°
2026-05-05 02:36 38.62481 -110.99281 36757 ft 602 kts 45°
2026-05-05 02:36 38.68063 -110.91283 36742 ft 602 kts 45°
2026-05-05 02:37 38.73640 -110.83276 36735 ft 602 kts 45°
2026-05-05 02:37 38.79213 -110.75251 36746 ft 603 kts 45°
2026-05-05 02:38 38.84801 -110.67185 36737 ft 603 kts 45°
2026-05-05 02:38 38.90339 -110.59169 36726 ft 603 kts 45°
2026-05-05 02:39 38.95911 -110.51082 36733 ft 603 kts 45°
2026-05-05 02:39 39.01470 -110.42996 36714 ft 604 kts 45°
2026-05-05 02:40 39.07051 -110.34860 36714 ft 607 kts 45°
2026-05-05 02:40 39.12633 -110.26697 36728 ft 605 kts 45°
2026-05-05 02:41 39.18116 -110.18647 36724 ft 600 kts 45°
2026-05-05 02:41 39.23627 -110.10548 36730 ft 599 kts 44°
2026-05-05 02:42 39.29154 -110.02426 36761 ft 602 kts 44°
2026-05-05 02:42 39.34619 -109.94343 36758 ft 600 kts 44°